Hourly Weather Roundup
Issued by NWS Central Illinois

Home | Current Version | Previous Version | Text Only | Print | Product List | Glossary On
Versions: 1 2 3 4 5 6 7 8 9 10 11 12 13 14 15 16 17 18 19 20 21 22 23 24 25 26 27 28 29 30 31 32 33 34 35 36 37 38 39 40 41 42 43 44 45 46 47 48 49 50
000
NZUS43 KILX 010810
HWRILX

AREA WEATHER ROUNDUP
NATIONAL WEATHER SERVICE, LINCOLN IL
300 AM CDT FRI AUG 01 2014


CITY           SKY/WX    TMP DP  RH WIND       PRES   REMARKS
BLOOMINGTON    CLOUDY    62  58  87 S6        30.09S
CHAMPAIGN      PTCLDY    62  59  90 CALM      30.08S
DECATUR        PTCLDY    60  57  89 NE3       30.07S
FLORA          CLEAR     62  60  94 CALM      30.08R
GALESBURG      LGT RAIN  64  62  94 CALM      30.07S
JACKSONVILLE   CLEAR     62  60  93 CALM      30.08S
LACON          MOCLDY    62  60  92 CALM      30.06R
LAWRENCEVILLE  CLEAR     63  61  93 CALM      30.07S FOG
LITCHFIELD     CLEAR     61  59  93 CALM      30.07R
$$


CITY           SKY/WX    TMP DP  RH WIND       PRES   REMARKS
LINCOLN        MOCLDY    63  60  90 CALM      30.05S
MACOMB         MOCLDY    63  62  96 CALM      30.08S
MATTOON        MOCLDY    67  63  87 S3        30.07S
MT CARMEL AP   CLEAR     63  61  94 CALM      30.07S FOG
OLNEY-NOBLE AP PTCLDY    59  59 100 CALM      30.08S FOG
PARIS          PTCLDY    57  57  97 CALM      30.08S
PEORIA         CLOUDY    68  62  81 CALM      30.07S
PONTIAC        PTCLDY    61  59  94 CALM      30.07S FOG
RANTOUL        PTCLDY    63  59  86 CALM      30.09S
ROBINSON       CLEAR     58  58  98 CALM      30.09R FOG
SPRINGFIELD    CLEAR     61  59  93 CALM      30.08S
TAYLORVILLE    CLEAR     61  59  94 CALM      30.07S
$$

...REGIONAL REPORTS...


CITY           SKY/WX    TMP DP  RH WIND       PRES   REMARKS
CHICAGO O`HARE CLEAR     66  58  75 W6        30.05R
KANKAKEE       CLEAR     61  59  93 CALM      30.07S
MOLINE         MOCLDY    67  61  81 CALM      30.05S
MOUNT VERNON   CLEAR     59  54  82 CALM      30.08S
PITTSFIELD     PTCLDY    61  58  91 CALM      30.08S
QUINCY         PTCLDY    66  59  78 SE5       30.06S
ROCKFORD       PTCLDY    61  57  87 S3        30.07S
$$


CITY           SKY/WX    TMP DP  RH WIND       PRES   REMARKS
BURLINGTON     MOCLDY    68  64  87 CALM      30.06S
CEDAR RAPIDS   CLEAR     62  60  93 CALM      30.05S
DES MOINES     PTCLDY    64  60  87 CALM      30.06R
KIRKSVILLE     CLOUDY    64  60  87 CALM      30.08R
OTTUMWA        MOCLDY    64  61  90 CALM      30.05F
ST LOUIS       CLEAR     72  63  73 CALM      30.07R
$$


CITY           SKY/WX    TMP DP  RH WIND       PRES   REMARKS
TERRE HAUTE    FOG       58  56  93 CALM      30.08R VSB 3/4
EVANSVILLE     CLEAR     65  61  87 CALM      30.07S
INDIANAPOLIS   CLEAR     66  61  84 CALM      30.08S
LAFAYETTE      CLEAR     59  57  93 CALM      30.07S
MADISON        CLEAR     61  57  87 CALM      30.04R
MILWAUKEE      PTCLDY    67  58  72 SW5       30.03R
$$




USA.gov is the U.S. government's official web portal to all federal, state and local government web resources and services.